Overview Statistics Trail Chart Weather Telemetry Raw packets
 

This is the latest recevied weather packets stored in our database for station/object KI5PFS. If no packets are shown the sender has not sent any weather packets the latest 10 day(s).

<< 4 5 6 7 8 9 10 >>
Time Temp. Humidity Pressure Rain* Wind** Luminosity Snow
1788541204 32.78° C 54% 1011.6 hPa 0 mm - - -
1788540603 32.78° C 57% 1011.7 hPa 0 mm - - -
1788540003 32.22° C 57% 1011.9 hPa 0 mm - - -
1788539404 32.22° C 58% 1011.8 hPa 0 mm - - -
1788538803 32.22° C 58% 1011.8 hPa 0 mm - - -
1788538203 32.22° C 61% 1011.8 hPa 0 mm - - -
1788537604 31.11° C 62% 1011.7 hPa 0 mm - - -
1788537003 31.11° C 64% 1011.8 hPa 0 mm - - -
1788536403 31.11° C 65% 1011.7 hPa 0 mm - - -
1788535804 30° C 63% 1011.7 hPa 0 mm - - -
1788535221 30° C 69% 1011.6 hPa 0 mm - - -
1788534603 30° C 71% 1011.6 hPa 0 mm - - -
1788534004 30° C 71% 1011.7 hPa 0 mm - - -
1788533403 28.89° C 74% 1011.7 hPa 0 mm - - -
1788532804 28.89° C 75% 1011.7 hPa 0 mm - - -
1788532203 27.78° C 78% 1011.7 hPa 0 mm - - -
1788531604 27.78° C 79% 1011.7 hPa 0 mm - - -
1788531004 27.78° C 80% 1011.8 hPa 0 mm - - -
1788530403 27.78° C 80% 1011.8 hPa 0 mm - - -
1788529803 27.22° C 82% 1011.7 hPa 0 mm - - -
1788529203 27.22° C 84% 1011.5 hPa 0 mm - - -
1788528604 26.11° C 85% 1011.5 hPa 0 mm - - -
1788528003 26.11° C 85% 1011.4 hPa 0 mm - - -
1788527403 26.11° C 86% 1011.3 hPa 0 mm - - -
1788526803 25° C 88% 1011.2 hPa 0 mm - - -

* Rain latest hour (hover to see other rain measurements)
** Current wind speed in m/s (hover to see current wind gust speed)